Total_Precipitation_Accumulation
1.92 1.92 2.68 3.79 4.46 3.99 3.61 2.90 2.30 1.96 1.62 1.26 1.00 1.00 1.49 2.04 2.63 3.03 2.93 2.69 2.06 1.76 1.84 2.67 3.39 3.03 2.66 2.55 2.69 3.00 2.91 2.90 2.77 2.67 2.49 2.26 1.93 1.78 1.75 1.56 1.51 1.55 1.45 1.33 1.39 1.58 1.52 1.50 1.55
1.82 2.59 3.57 4.61 4.34 3.59 3.45 2.73 2.27 1.81 1.23 0.98 0.78 0.79 1.02 1.06 1.04 1.59 2.78 2.86 1.93 1.57 1.65 2.26 3.29 2.93 2.77 2.72 2.80 2.88 2.86 2.92 2.74 2.60 2.36 2.15 1.92 1.91 1.93 1.92 1.91 1.76 1.53 1.41 1.39 1.58 1.49 1.38 1.48
1.97 3.26 4.48 4.55 3.50 3.16 3.39 2.69 1.90 1.36 0.94 0.92 0.84 0.73 0.91 1.24 1.33 2.04 2.87 2.45 1.76 1.50 1.62 2.53 3.31 2.96 2.79 2.77 2.81 2.79 2.93 3.00 2.78 2.50 2.21 1.98 1.97 2.24 2.28 2.15 2.02 1.79 1.61 1.46 1.41 1.48 1.49 1.40 1.37
2.42 3.69 3.91 3.50 3.16 2.72 2.49 2.20 1.62 1.52 1.15 0.83 0.77 0.84 0.83 1.24 1.50 1.99 2.21 1.90 1.72 1.70 1.72 2.54 3.33 3.11 2.88 2.78 2.72 2.73 2.89 3.02 2.93 2.57 2.23 2.06 2.06 2.13 2.16 2.07 1.93 1.73 1.61 1.48 1.50 1.48 1.43 1.41 1.35
2.89 3.56 3.58 3.16 2.97 2.62 1.94 1.70 1.51 1.67 1.50 1.00 0.79 1.07 1.28 1.69 1.81 1.87 1.89 1.87 1.63 1.65 1.72 2.21 3.01 2.98 2.78 2.68 2.65 2.80 2.88 2.88 2.86 2.61 2.28 2.16 2.13 2.07 2.12 2.03 1.88 1.61 1.55 1.48 1.56 1.54 1.46 1.36 1.35
3.19 3.20 3.48 3.33 3.13 2.73 2.19 1.76 1.59 1.58 1.39 1.04 0.96 1.21 1.63 2.23 2.24 2.13 1.82 1.84 1.79 1.65 1.62 1.93 2.59 2.86 2.75 2.72 2.67 2.77 2.84 2.81 2.67 2.36 2.17 2.07 2.10 2.09 2.07 1.97 1.87 1.61 1.60 1.56 1.49 1.50 1.45 1.40 1.41
3.08 3.06 3.02 2.79 3.05 3.27 2.57 1.73 1.74 1.62 1.53 1.25 0.96 1.32 1.70 2.43 2.25 2.11 1.94 1.89 1.96 1.85 1.84 1.98 2.31 2.55 2.93 2.98 2.83 2.84 2.90 2.81 2.58 2.22 2.14 2.04 2.01 1.88 1.87 1.86 1.76 1.62 1.60 1.49 1.39 1.39 1.39 1.45 1.47
2.38 2.47 2.40 2.49 2.94 3.14 2.25 1.42 1.29 1.48 1.52 1.04 0.88 1.25 1.67 2.07 2.00 2.07 2.11 2.11 1.98 1.91 1.91 1.85 2.00 2.12 2.43 2.67 2.92 3.04 2.96 2.85 2.66 2.28 2.12 2.04 1.97 1.82 1.73 1.60 1.62 1.60 1.62 1.61 1.47 1.40 1.43 1.52 1.55
2.19 2.58 2.75 2.88 2.76 2.55 1.73 1.44 1.27 1.13 1.19 1.00 0.90 1.02 1.43 1.53 1.68 2.02 2.23 2.21 1.94 1.76 1.68 1.61 1.70 1.85 2.08 2.34 2.56 2.88 2.85 2.75 2.54 2.19 2.13 2.07 1.86 1.59 1.54 1.46 1.80 1.71 1.70 1.69 1.65 1.63 1.58 1.53 1.46
2.29 2.74 2.70 2.30 1.81 1.73 1.48 1.34 1.28 1.20 1.29 1.25 1.12 1.18 1.53 1.71 1.79 1.94 2.00 1.89 1.73 1.77 1.62 1.44 1.46 1.60 1.73 1.88 2.43 2.55 2.22 2.05 1.87 1.99 1.96 1.89 1.86 1.67 1.27 1.42 1.85 1.94 1.89 1.70 1.63 1.69 1.47 1.15 1.03
1.80 2.05 1.78 1.74 1.40 1.23 1.25 1.20 1.10 1.32 1.55 1.26 1.25 1.35 1.66 1.87 1.77 1.80 1.78 1.66 1.58 1.54 1.46 1.33 1.32 1.30 1.31 1.51 1.88 2.14 2.16 2.08 1.86 1.75 1.71 1.78 1.71 1.50 1.29 1.38 1.50 1.48 1.41 1.29 1.29 1.21 0.99 0.90 0.97
1.57 1.49 1.27 1.40 1.22 1.20 1.24 1.12 1.09 1.17 1.29 0.99 1.08 1.31 1.61 1.79 1.76 1.68 1.59 1.55 1.45 1.34 1.28 1.20 1.14 1.10 1.07 1.17 1.29 1.41 1.66 1.74 1.70 1.48 1.32 1.40 1.53 1.47 1.29 1.29 1.32 1.33 1.30 1.37 1.34 1.23 1.09 1.03 1.03
1.73 1.52 1.31 1.26 1.21 1.16 1.13 1.10 1.02 1.00 0.93 0.95 1.07 1.40 1.70 1.92 2.03 1.98 1.68 1.41 1.29 1.31 1.26 1.14 1.01 1.01 1.03 1.13 1.21 1.13 1.34 1.50 1.56 1.50 1.30 1.23 1.29 1.34 1.27 1.12 1.21 1.24 1.25 1.24 1.24 1.18 1.19 1.26 1.23
1.58 1.43 1.39 1.37 1.23 1.09 1.13 1.08 1.01 1.17 1.03 1.03 1.10 1.32 1.46 1.69 1.76 1.68 1.63 1.36 1.18 1.15 1.22 1.13 1.06 1.11 1.07 1.03 1.08 1.08 1.13 1.25 1.26 1.38 1.32 1.28 1.26 1.25 1.25 1.20 1.25 1.31 1.32 1.26 1.19 1.12 1.24 1.27 1.30
1.25 1.50 1.53 1.43 1.27 1.15 1.08 1.32 1.20 1.24 1.18 1.23 1.23 1.22 1.32 1.44 1.51 1.40 1.27 1.10 1.06 1.04 1.03 0.97 0.97 1.08 1.07 1.07 1.07 1.07 1.20 1.24 1.21 1.24 1.19 1.28 1.25 1.23 1.26 1.27 1.29 1.29 1.35 1.39 1.37 1.30 1.34 1.35 1.44
1.40 1.75 1.98 1.58 1.35 1.28 1.36 1.63 1.37 1.34 1.33 1.22 1.18 1.19 1.23 1.29 1.39 1.38 1.28 1.07 0.98 0.92 0.90 0.89 0.78 0.90 1.05 1.14 1.19 1.28 1.35 1.36 1.35 1.25 1.16 1.15 1.14 1.16 1.24 1.26 1.29 1.37 1.35 1.40 1.50 1.51 1.54 1.55 1.59
1.73 1.77 1.73 1.64 1.32 1.32 1.39 1.44 1.30 1.35 1.32 1.17 1.06 1.05 1.01 1.06 1.12 1.16 1.18 1.12 1.01 0.94 0.93 0.94 0.87 0.92 1.05 1.12 1.27 1.38 1.50 1.58 1.64 1.53 1.49 1.41 1.28 1.30 1.41 1.47 1.45 1.47 1.53 1.54 1.47 1.50 1.61 1.71 1.69
1.60 1.30 1.31 1.40 1.25 1.19 1.26 1.14 1.14 1.28 1.29 1.22 1.06 0.98 0.90 0.93 0.94 0.94 1.01 1.06 1.06 1.01 0.98 1.02 1.08 1.10 1.23 1.40 1.63 1.86 1.99 2.12 2.20 2.11 2.00 1.83 1.60 1.56 1.73 1.77 1.64 1.67 1.79 1.88 1.76 1.85 1.75 1.67 1.74
0.98 0.95 1.02 0.98 0.88 0.99 0.98 0.96 0.98 1.01 1.11 1.06 0.91 0.88 0.88 0.85 0.86 0.87 0.90 0.99 1.07 1.06 1.02 0.98 1.03 1.13 1.25 1.47 1.79 2.30 2.59 2.66 2.52 2.45 2.36 2.15 1.93 1.91 2.09 2.11 2.10 2.08 2.09 2.07 1.99 2.20 2.14 1.87 1.77
0.85 0.93 0.93 0.88 0.79 0.85 0.80 0.79 0.77 0.76 0.77 0.78 0.71 0.72 0.81 0.81 0.86 0.84 0.83 0.87 0.93 0.91 0.93 1.07 1.12 1.17 1.28 1.53 1.82 2.20 2.63 2.71 2.64 2.51 2.40 2.29 2.17 2.13 2.16 2.39 2.50 2.46 2.65 2.67 2.45 2.55 2.58 2.21 1.98
0.80 0.87 0.88 0.95 0.91 0.81 0.75 0.83 0.79 0.70 0.64 0.60 0.62 0.65 0.69 0.66 0.73 0.77 0.81 0.84 0.83 0.80 0.77 0.90 1.07 1.27 1.55 1.83 2.12 2.30 2.59 2.69 2.68 2.55 2.47 2.48 2.41 2.27 2.34 2.45 2.62 2.62 2.71 2.92 3.04 2.93 3.00 2.79 2.36
0.85 0.60 0.57 0.68 1.01 1.08 0.80 1.00 0.80 0.66 0.71 0.68 0.65 0.64 0.64 0.63 0.67 0.70 0.77 0.82 0.78 0.72 0.71 0.80 0.95 1.24 1.63 1.97 2.20 2.45 2.81 2.91 2.76 2.66 2.54 2.55 2.57 2.55 2.65 2.65 2.71 2.72 2.74 2.85 3.01 3.00 3.17 3.29 2.88
0.63 0.53 0.55 0.63 0.86 0.93 0.72 0.76 0.73 0.64 0.70 0.68 0.60 0.59 0.58 0.55 0.53 0.57 0.62 0.67 0.71 0.77 0.79 0.87 1.07 1.35 1.67 1.89 2.15 2.49 2.68 2.79 2.85 2.72 2.65 2.63 2.66 2.67 2.73 2.77 2.88 2.87 2.84 2.78 2.99 3.09 3.20 3.16 3.11
0.47 0.59 0.70 0.72 0.88 0.94 0.54 0.61 0.74 0.63 0.51 0.51 0.54 0.54 0.51 0.48 0.46 0.55 0.66 0.72 0.80 0.84 0.94 1.06 1.20 1.40 1.65 1.86 2.12 2.28 2.46 2.62 2.67 2.70 2.62 2.58 2.63 2.72 2.60 2.51 2.68 2.74 2.75 2.71 2.87 3.01 3.17 3.16 3.20
0.50 0.87 1.25 1.25 1.22 0.95 0.46 0.58 0.71 0.50 0.39 0.42 0.46 0.49 0.47 0.50 0.56 0.68 0.83 0.99 1.05 1.08 1.13 1.23 1.34 1.52 1.66 1.77 1.93 2.02 2.12 2.25 2.22 2.36 2.40 2.52 2.52 2.55 2.57 2.48 2.48 2.51 2.44 2.42 2.53 2.58 2.67 2.82 3.02
0.45 0.68 1.15 1.27 1.06 0.81 0.60 0.80 0.76 0.49 0.41 0.42 0.44 0.48 0.52 0.62 0.73 0.88 1.05 1.28 1.37 1.40 1.41 1.43 1.49 1.55 1.58 1.63 1.73 1.86 1.93 1.98 1.95 1.93 1.94 2.10 2.25 2.27 2.33 2.37 2.33 2.36 2.37 2.32 2.41 2.41 2.42 2.47 2.53
0.48 0.55 0.60 0.81 0.71 0.72 0.70 0.79 0.74 0.53 0.49 0.49 0.51 0.57 0.67 0.87 1.00 1.14 1.31 1.44 1.45 1.52 1.52 1.52 1.55 1.56 1.55 1.58 1.62 1.60 1.64 1.69 1.71 1.69 1.76 1.80 1.86 1.87 1.92 1.97 2.11 2.23 2.26 2.27 2.38 2.44 2.40 2.33 2.31
0.43 0.58 0.75 1.07 1.19 1.02 0.82 0.91 0.91 0.72 0.59 0.54 0.61 0.73 0.90 1.17 1.34 1.51 1.69 1.69 1.64 1.67 1.75 1.69 1.62 1.59 1.63 1.64 1.62 1.55 1.57 1.60 1.59 1.51 1.57 1.53 1.49 1.51 1.58 1.66 1.85 2.14 2.27 2.28 2.33 2.38 2.38 2.38 2.30
0.46 0.62 0.80 1.12 1.20 1.35 1.37 1.39 1.06 0.85 0.79 0.87 0.99 1.11 1.29 1.54 1.72 1.85 1.96 1.97 1.82 1.71 1.69 1.63 1.55 1.52 1.50 1.55 1.64 1.59 1.54 1.56 1.58 1.50 1.42 1.40 1.39 1.38 1.46 1.54 1.69 1.85 2.07 2.28 2.41 2.39 2.33 2.30 2.26
0.55 0.77 1.00 1.50 1.43 1.26 1.46 1.59 1.16 0.96 0.95 0.98 1.06 1.22 1.42 1.55 1.64 1.70 1.73 1.83 1.75 1.66 1.55 1.52 1.44 1.31 1.33 1.39 1.50 1.59 1.50 1.47 1.49 1.41 1.46 1.37 1.29 1.28 1.30 1.45 1.66 1.78 1.86 1.95 2.03 2.09 2.12 2.13 2.15